TimeCST,TemperatureF,Dew PointF,Humidity,Sea Level PressureIn,VisibilityMPH,Wind Direction,Wind SpeedMPH,Gust SpeedMPH,PrecipitationIn,Events,Conditions,WindDirDegrees,DateUTC
12:56 AM,17.1,15.1,92,30.04,10.0,SSE,3.5,-,N/A,,Overcast,160,2013-03-03 06:56:00
1:56 AM,16.0,12.9,88,30.02,10.0,ESE,4.6,-,N/A,,Clear,110,2013-03-03 07:56:00
2:56 AM,14.0,10.9,88,30.01,10.0,East,5.8,-,N/A,,Partly Cloudy,100,2013-03-03 08:56:00
3:56 AM,14.0,10.9,88,29.99,10.0,ESE,4.6,-,N/A,,Scattered Clouds,120,2013-03-03 09:56:00
4:56 AM,12.0,10.0,92,29.99,9.0,ESE,5.8,-,N/A,,Clear,120,2013-03-03 10:56:00
5:56 AM,14.0,10.9,88,29.98,9.0,SE,5.8,-,N/A,,Overcast,130,2013-03-03 11:56:00
6:56 AM,15.1,12.0,88,29.96,10.0,SSE,8.1,-,N/A,,Overcast,150,2013-03-03 12:56:00
7:56 AM,16.0,12.9,88,29.95,9.0,SE,8.1,-,N/A,,Overcast,130,2013-03-03 13:56:00
8:56 AM,19.0,16.0,88,29.94,9.0,SE,10.4,-,N/A,,Overcast,140,2013-03-03 14:56:00
9:56 AM,21.0,17.1,85,29.93,9.0,SSE,10.4,-,N/A,,Overcast,150,2013-03-03 15:56:00
10:56 AM,24.1,19.0,81,29.91,9.0,SE,11.5,-,N/A,,Overcast,140,2013-03-03 16:56:00
11:56 AM,23.0,19.0,85,29.89,8.0,ESE,12.7,-,N/A,,Overcast,120,2013-03-03 17:56:00
12:56 PM,24.1,19.0,81,29.86,7.0,ESE,12.7,-,N/A,,Mostly Cloudy,120,2013-03-03 18:56:00
1:38 PM,24.8,19.4,80,29.77,7.0,ESE,13.8,-,N/A,,Mostly Cloudy,110,2013-03-03 19:38:00
1:56 PM,25.0,21.0,85,29.83,6.0,ESE,15.0,-,N/A,,Mostly Cloudy,120,2013-03-03 19:56:00
2:06 PM,24.8,21.2,86,29.76,6.0,ESE,15.0,-,N/A,,Overcast,120,2013-03-03 20:06:00
2:56 PM,26.1,21.0,81,29.82,6.0,ESE,16.1,-,N/A,,Haze,110,2013-03-03 20:56:00
3:56 PM,26.1,21.9,84,29.82,5.0,ESE,19.6,-,N/A,,Overcast,120,2013-03-03 21:56:00
4:56 PM,26.1,21.9,84,29.81,5.0,ESE,19.6,-,N/A,,Overcast,120,2013-03-03 22:56:00
5:56 PM,26.1,21.9,84,29.81,4.0,SE,18.4,-,N/A,,Overcast,130,2013-03-03 23:56:00
6:56 PM,26.1,23.0,88,29.81,5.0,SE,21.9,26.5,N/A,,Overcast,130,2013-03-04 00:56:00
7:56 PM,26.1,23.0,88,29.80,6.0,SE,20.7,27.6,N/A,,Overcast,130,2013-03-04 01:56:00
8:54 PM,26.6,23.0,86,29.72,5.0,SE,19.6,27.6,0.00,Rain,Light Freezing Rain,130,2013-03-04 02:54:00
8:56 PM,27.0,23.0,85,29.79,5.0,SE,20.7,26.5,0.00,Rain,Light Freezing Rain,130,2013-03-04 02:56:00
9:56 PM,26.1,21.9,84,29.78,5.0,SE,25.3,33.4,0.01,Rain,Light Freezing Rain,130,2013-03-04 03:56:00
10:25 PM,26.6,23.0,86,29.71,5.0,SE,21.9,31.1,0.01,Rain,Light Freezing Rain,130,2013-03-04 04:25:00
10:33 PM,26.6,21.2,80,29.71,6.0,SE,20.7,29.9,0.02,Rain,Light Freezing Rain,130,2013-03-04 04:33:00
10:56 PM,26.1,21.9,84,29.78,6.0,SE,21.9,27.6,0.03,Rain,Light Freezing Rain,130,2013-03-04 04:56:00
11:00 PM,26.6,21.2,80,29.72,5.0,SE,18.4,27.6,0.00,Snow,Light Snow,130,2013-03-04 05:00:00
11:23 PM,24.8,21.2,86,29.72,2.5,SE,19.6,27.6,0.01,Snow,Light Snow,130,2013-03-04 05:23:00
11:32 PM,24.8,21.2,86,29.71,4.0,SE,20.7,25.3,0.02,Snow,Light Snow,130,2013-03-04 05:32:00
11:42 PM,24.8,21.2,86,29.71,1.8,ESE,23.0,27.6,0.02,Snow,Light Snow,120,2013-03-04 05:42:00
11:51 PM,24.8,21.2,86,29.71,1.2,SE,18.4,-,0.02,Snow,Light Snow,130,2013-03-04 05:51:00
11:56 PM,24.1,21.0,88,29.78,1.0,ESE,21.9,-,0.02,Snow,Light Snow,120,2013-03-04 05:56:00